This is the latest recevied weather packets stored in our database for station/object SQ6PCH-10. If no packets are shown the sender has not sent any weather packets the latest 10 day(s).
| Time | Temp. | Humidity | Pressure | Rain* | Wind** | Luminosity | Snow |
|---|---|---|---|---|---|---|---|
| 1777737480 | 26.67° C | 18% | 1005.1 hPa | - | - | - | - |
| 1777736880 | 26.11° C | 18% | 1005.3 hPa | - | - | - | - |
| 1777736280 | 26.11° C | 18% | 1005.3 hPa | - | - | - | - |
| 1777735679 | 27.22° C | 16% | 1005.5 hPa | - | - | - | - |
| 1777735079 | 28.89° C | 15% | 1005.6 hPa | - | - | - | - |
| 1777734479 | 29.44° C | 15% | 1005.6 hPa | - | - | - | - |
| 1777733879 | 28.89° C | 14% | 1005.7 hPa | - | - | - | - |
| 1777733279 | 29.44° C | 14% | 1005.8 hPa | - | - | - | - |
| 1777732678 | 30° C | 13% | 1006 hPa | - | - | - | - |
| 1777732078 | 30° C | 13% | 1006.1 hPa | - | - | - | - |
| 1777731478 | 28.89° C | 14% | 1006.4 hPa | - | - | - | - |
| 1777730878 | 31.11° C | 13% | 1006.4 hPa | - | - | - | - |
| 1777730278 | 30.56° C | 12% | 1006.5 hPa | - | - | - | - |
| 1777729677 | 32.22° C | 12% | 1006.6 hPa | - | - | - | - |
| 1777729077 | 31.67° C | 12% | 1006.6 hPa | - | - | - | - |
| 1777728477 | 31.67° C | 12% | 1006.7 hPa | - | - | - | - |
| 1777727877 | 31.11° C | 12% | 1006.9 hPa | - | - | - | - |
| 1777727277 | 31.67° C | 11% | 1007.2 hPa | - | - | - | - |
| 1777726676 | 33.89° C | 11% | 1007.2 hPa | - | - | - | - |
| 1777726076 | 31.67° C | 12% | 1007.4 hPa | - | - | - | - |
| 1777725476 | 31.67° C | 11% | 1007.6 hPa | - | - | - | - |
| 1777724876 | 32.78° C | 10% | 1007.8 hPa | - | - | - | - |
| 1777724276 | 31.67° C | 12% | 1007.9 hPa | - | - | - | - |
| 1777723676 | 31.67° C | 12% | 1008.1 hPa | - | - | - | - |
| 1777723075 | 32.78° C | 11% | 1008.2 hPa | - | - | - | - |
* Rain since midnight (hover to see other rain measurements)
** Current wind speed in m/s (hover to see current wind gust speed)